Time,TemperatureF,DewpointF,PressureIn,WindDirection,WindDirectionDegrees,WindSpeedMPH,WindSpeedGustMPH,Humidity,HourlyPrecipIn,Conditions,Clouds,dailyrainin,SoftwareType,DateUTC
2013-07-05 00:01:00,80.8,72.5,30.08,WSW,252,3.0,3.0,76,0.00,,,0.00,Wunderground v.1.15,2013-07-05 04:01:00,
2013-07-05 00:02:00,80.8,72.5,30.09,WSW,253,1.0,3.0,76,0.00,,,0.00,Wunderground v.1.15,2013-07-05 04:02:00,
2013-07-05 00:05:00,80.8,72.5,30.09,SSW,194,1.0,3.0,76,0.00,,,0.00,Wunderground v.1.15,2013-07-05 04:05:00,
2013-07-05 00:06:00,80.8,72.5,30.09,West,267,3.0,3.0,76,0.00,,,0.00,Wunderground v.1.15,2013-07-05 04:06:00,
2013-07-05 00:11:00,80.7,72.4,30.09,WNW,296,6.0,6.0,76,0.00,,,0.00,Wunderground v.1.15,2013-07-05 04:11:00,
2013-07-05 00:12:00,80.6,72.3,30.09,WNW,292,5.0,6.0,76,0.00,,,0.00,Wunderground v.1.15,2013-07-05 04:12:00,
2013-07-05 00:18:00,80.6,72.3,30.09,WSW,237,2.0,6.0,76,0.00,,,0.00,Wunderground v.1.15,2013-07-05 04:18:00,
2013-07-05 00:23:00,80.5,72.2,30.09,WSW,242,5.0,5.0,76,0.00,,,0.00,Wunderground v.1.15,2013-07-05 04:23:00,
2013-07-05 00:28:00,80.4,72.1,30.09,WSW,238,0.0,5.0,76,0.00,,,0.00,Wunderground v.1.15,2013-07-05 04:28:00,
2013-07-05 00:33:00,80.3,72.0,30.09,SW,219,0.0,2.0,76,0.00,,,0.00,Wunderground v.1.15,2013-07-05 04:33:00,
2013-07-05 00:39:00,80.3,72.4,30.08,West,277,4.0,6.0,77,0.00,,,0.00,Wunderground v.1.15,2013-07-05 04:39:00,
2013-07-05 00:44:00,80.2,72.3,30.08,WSW,249,7.0,7.0,77,0.00,,,0.00,Wunderground v.1.15,2013-07-05 04:44:00,
2013-07-05 00:49:00,80.1,72.2,30.09,WSW,254,3.0,7.0,77,0.00,,,0.00,Wunderground v.1.15,2013-07-05 04:49:00,
2013-07-05 00:55:00,80.0,72.1,30.09,SW,235,0.0,4.0,77,0.00,,,0.00,Wunderground v.1.15,2013-07-05 04:55:00,
2013-07-05 01:00:00,80.0,72.1,30.09,South,172,1.0,1.0,77,0.00,,,0.00,Wunderground v.1.15,2013-07-05 05:00:00,
2013-07-05 01:05:00,79.9,72.0,30.09,WNW,287,3.0,5.0,77,0.00,,,0.00,Wunderground v.1.15,2013-07-05 05:05:00,
2013-07-05 01:11:00,79.8,71.9,30.09,NW,304,7.0,7.0,77,0.00,,,0.00,Wunderground v.1.15,2013-07-05 05:11:00,
2013-07-05 01:16:00,79.7,71.8,30.09,WNW,296,2.0,7.0,77,0.00,,,0.00,Wunderground v.1.15,2013-07-05 05:16:00,
2013-07-05 01:21:00,79.7,71.8,30.09,WSW,239,5.0,5.0,77,0.00,,,0.00,Wunderground v.1.15,2013-07-05 05:21:00,
2013-07-05 01:26:00,79.6,71.8,30.09,West,269,3.0,5.0,77,0.00,,,0.00,Wunderground v.1.15,2013-07-05 05:26:00,
2013-07-05 01:32:00,79.6,71.8,30.09,West,279,1.0,7.0,77,0.00,,,0.00,Wunderground v.1.15,2013-07-05 05:32:00,
2013-07-05 01:37:00,79.5,71.7,30.09,NW,314,0.0,7.0,77,0.00,,,0.00,Wunderground v.1.15,2013-07-05 05:37:00,
2013-07-05 01:42:00,79.5,72.0,30.09,West,265,4.0,4.0,78,0.00,,,0.00,Wunderground v.1.15,2013-07-05 05:42:00,
2013-07-05 01:48:00,79.4,71.9,30.09,WNW,290,1.0,4.0,78,0.00,,,0.00,Wunderground v.1.15,2013-07-05 05:48:00,
2013-07-05 01:53:00,79.3,71.8,30.09,WSW,250,1.0,4.0,78,0.00,,,0.00,Wunderground v.1.15,2013-07-05 05:53:00,
2013-07-05 01:58:00,79.3,71.8,30.08,SSW,196,2.0,5.0,78,0.00,,,0.00,Wunderground v.1.15,2013-07-05 05:58:00,
2013-07-05 02:03:00,79.2,71.7,30.09,WNW,287,6.0,6.0,78,0.00,,,0.00,Wunderground v.1.15,2013-07-05 06:03:00,
2013-07-05 02:08:00,79.2,71.7,30.09,WSW,241,1.0,7.0,78,0.00,,,0.00,Wunderground v.1.15,2013-07-05 06:08:00,
2013-07-05 02:13:00,79.1,71.6,30.08,WNW,286,0.0,5.0,78,0.00,,,0.00,Wunderground v.1.15,2013-07-05 06:13:00,
2013-07-05 02:18:00,79.1,71.6,30.08,WSW,255,2.0,7.0,78,0.00,,,0.00,Wunderground v.1.15,2013-07-05 06:18:00,
2013-07-05 02:23:00,79.0,71.6,30.09,SW,229,0.0,2.0,78,0.00,,,0.00,Wunderground v.1.15,2013-07-05 06:23:00,
2013-07-05 02:28:00,79.0,71.6,30.09,WSW,245,0.0,6.0,78,0.00,,,0.00,Wunderground v.1.15,2013-07-05 06:28:00,
2013-07-05 02:33:00,78.9,71.5,30.09,WSW,255,0.0,7.0,78,0.00,,,0.00,Wunderground v.1.15,2013-07-05 06:33:00,
2013-07-05 02:38:00,78.9,71.5,30.09,WSW,246,1.0,7.0,78,0.00,,,0.00,Wunderground v.1.15,2013-07-05 06:38:00,
2013-07-05 02:43:00,78.8,71.4,30.08,WSW,242,0.0,4.0,78,0.00,,,0.00,Wunderground v.1.15,2013-07-05 06:43:00,
2013-07-05 02:48:00,78.7,71.3,30.08,West,279,0.0,6.0,78,0.00,,,0.00,Wunderground v.1.15,2013-07-05 06:48:00,
2013-07-05 02:53:00,78.7,71.3,30.08,West,279,0.0,3.0,78,0.00,,,0.00,Wunderground v.1.15,2013-07-05 06:53:00,
2013-07-05 02:58:00,78.7,71.3,30.08,West,281,0.0,5.0,78,0.00,,,0.00,Wunderground v.1.15,2013-07-05 06:58:00,
2013-07-05 03:03:00,78.7,71.3,30.09,WSW,245,0.0,4.0,78,0.00,,,0.00,Wunderground v.1.15,2013-07-05 07:03:00,
2013-07-05 03:08:00,78.6,71.2,30.09,West,275,0.0,4.0,78,0.00,,,0.00,Wunderground v.1.15,2013-07-05 07:08:00,
2013-07-05 03:13:00,78.5,71.1,30.09,West,281,0.0,2.0,78,0.00,,,0.00,Wunderground v.1.15,2013-07-05 07:13:00,
2013-07-05 03:18:00,78.4,71.0,30.09,WSW,245,0.0,9.0,78,0.00,,,0.00,Wunderground v.1.15,2013-07-05 07:18:00,
2013-07-05 03:23:00,78.4,71.3,30.08,WSW,253,2.0,5.0,79,0.00,,,0.00,Wunderground v.1.15,2013-07-05 07:23:00,
2013-07-05 03:28:00,78.4,71.3,30.09,West,277,3.0,5.0,79,0.00,,,0.00,Wunderground v.1.15,2013-07-05 07:28:00,
2013-07-05 03:33:00,78.3,71.2,30.09,West,273,0.0,4.0,79,0.00,,,0.00,Wunderground v.1.15,2013-07-05 07:33:00,
2013-07-05 03:38:00,78.2,71.2,30.09,West,265,0.0,4.0,79,0.00,,,0.00,Wunderground v.1.15,2013-07-05 07:38:00,
2013-07-05 03:43:00,78.2,71.2,30.09,WSW,252,1.0,6.0,79,0.00,,,0.00,Wunderground v.1.15,2013-07-05 07:43:00,
2013-07-05 03:48:00,78.2,71.2,30.09,WSW,254,2.0,7.0,79,0.00,,,0.00,Wunderground v.1.15,2013-07-05 07:48:00,
2013-07-05 03:53:00,78.2,71.2,30.09,West,275,4.0,7.0,79,0.00,,,0.00,Wunderground v.1.15,2013-07-05 07:53:00,
2013-07-05 03:58:00,78.2,71.2,30.09,West,273,0.0,11.0,79,0.00,,,0.00,Wunderground v.1.15,2013-07-05 07:58:00,
2013-07-05 04:03:00,78.2,71.2,30.08,WNW,290,1.0,5.0,79,0.00,,,0.00,Wunderground v.1.15,2013-07-05 08:03:00,
2013-07-05 04:08:00,78.1,71.1,30.09,West,259,2.0,5.0,79,0.00,,,0.00,Wunderground v.1.15,2013-07-05 08:08:00,
2013-07-05 04:13:00,78.1,71.1,30.09,WSW,257,0.0,6.0,79,0.00,,,0.00,Wunderground v.1.15,2013-07-05 08:13:00,
2013-07-05 04:18:00,78.1,71.1,30.09,West,278,1.0,8.0,79,0.00,,,0.00,Wunderground v.1.15,2013-07-05 08:18:00,
2013-07-05 04:24:00,78.1,71.1,30.09,WSW,242,0.0,8.0,79,0.00,,,0.00,Wunderground v.1.15,2013-07-05 08:24:00,
2013-07-05 04:29:00,78.0,71.0,30.09,West,278,3.0,8.0,79,0.00,,,0.00,Wunderground v.1.15,2013-07-05 08:29:00,
2013-07-05 04:34:00,78.0,71.0,30.09,WNW,287,0.0,4.0,79,0.00,,,0.00,Wunderground v.1.15,2013-07-05 08:34:00,
2013-07-05 04:39:00,78.0,71.0,30.09,West,274,0.0,4.0,79,0.00,,,0.00,Wunderground v.1.15,2013-07-05 08:39:00,
2013-07-05 04:44:00,77.9,70.9,30.09,West,277,2.0,5.0,79,0.00,,,0.00,Wunderground v.1.15,2013-07-05 08:44:00,
2013-07-05 04:49:00,77.9,70.9,30.09,West,275,4.0,7.0,79,0.00,,,0.00,Wunderground v.1.15,2013-07-05 08:49:00,
2013-07-05 04:54:00,77.8,70.8,30.09,WSW,250,0.0,3.0,79,0.00,,,0.00,Wunderground v.1.15,2013-07-05 08:54:00,
2013-07-05 04:59:00,77.8,70.8,30.09,West,276,0.0,3.0,79,0.00,,,0.00,Wunderground v.1.15,2013-07-05 08:59:00,
2013-07-05 05:04:00,77.8,70.8,30.09,West,265,2.0,6.0,79,0.00,,,0.00,Wunderground v.1.15,2013-07-05 09:04:00,
2013-07-05 05:10:00,77.8,70.8,30.09,WSW,241,2.0,2.0,79,0.00,,,0.00,Wunderground v.1.15,2013-07-05 09:10:00,
2013-07-05 05:15:00,77.8,70.8,30.09,WSW,256,0.0,4.0,79,0.00,,,0.00,Wunderground v.1.15,2013-07-05 09:15:00,
2013-07-05 05:20:00,77.8,70.8,30.10,West,277,4.0,4.0,79,0.00,,,0.00,Wunderground v.1.15,2013-07-05 09:20:00,
2013-07-05 05:25:00,77.8,71.1,30.10,NW,318,0.0,6.0,80,0.00,,,0.00,Wunderground v.1.15,2013-07-05 09:25:00,
2013-07-05 05:30:00,77.7,71.0,30.10,West,281,0.0,1.0,80,0.00,,,0.00,Wunderground v.1.15,2013-07-05 09:30:00,
2013-07-05 05:35:00,77.7,71.0,30.10,WNW,296,0.0,6.0,80,0.00,,,0.00,Wunderground v.1.15,2013-07-05 09:35:00,
2013-07-05 05:41:00,77.7,71.0,30.10,WNW,295,0.0,1.0,80,0.00,,,0.00,Wunderground v.1.15,2013-07-05 09:41:00,
2013-07-05 05:46:00,77.7,71.0,30.10,WNW,295,0.0,2.0,80,0.00,,,0.00,Wunderground v.1.15,2013-07-05 09:46:00,
2013-07-05 05:52:00,77.8,71.1,30.11,WNW,295,0.0,0.0,80,0.00,,,0.00,Wunderground v.1.15,2013-07-05 09:52:00,
2013-07-05 05:57:00,77.8,71.1,30.11,WNW,294,0.0,3.0,80,0.00,,,0.00,Wunderground v.1.15,2013-07-05 09:57:00,
2013-07-05 06:02:00,77.8,71.1,30.11,WSW,242,2.0,5.0,80,0.00,,,0.00,Wunderground v.1.15,2013-07-05 10:02:00,
2013-07-05 06:07:00,77.9,71.2,30.11,WSW,250,3.0,5.0,80,0.00,,,0.00,Wunderground v.1.15,2013-07-05 10:07:00,
2013-07-05 06:13:00,78.0,71.3,30.11,WSW,237,0.0,3.0,80,0.00,,,0.00,Wunderground v.1.15,2013-07-05 10:13:00,
2013-07-05 06:18:00,78.1,71.4,30.11,West,279,0.0,4.0,80,0.00,,,0.00,Wunderground v.1.15,2013-07-05 10:18:00,
2013-07-05 06:23:00,78.2,71.5,30.11,West,275,0.0,3.0,80,0.00,,,0.00,Wunderground v.1.15,2013-07-05 10:23:00,
2013-07-05 06:28:00,78.3,71.6,30.11,West,271,2.0,5.0,80,0.00,,,0.00,Wunderground v.1.15,2013-07-05 10:28:00,
2013-07-05 06:33:00,78.4,71.7,30.12,West,272,0.0,2.0,80,0.00,,,0.00,Wunderground v.1.15,2013-07-05 10:33:00,
2013-07-05 06:38:00,78.6,71.9,30.12,SW,227,4.0,6.0,80,0.00,,,0.00,Wunderground v.1.15,2013-07-05 10:38:00,
2013-07-05 06:44:00,78.7,72.0,30.11,West,275,0.0,5.0,80,0.00,,,0.00,Wunderground v.1.15,2013-07-05 10:44:00,
2013-07-05 06:49:00,78.7,72.0,30.11,SW,229,0.0,6.0,80,0.00,,,0.00,Wunderground v.1.15,2013-07-05 10:49:00,
2013-07-05 06:54:00,79.0,72.3,30.12,WSW,250,3.0,4.0,80,0.00,,,0.00,Wunderground v.1.15,2013-07-05 10:54:00,
2013-07-05 07:00:00,79.1,72.4,30.11,NNW,327,1.0,5.0,80,0.00,,,0.00,Wunderground v.1.15,2013-07-05 11:00:00,
2013-07-05 07:05:00,79.3,72.2,30.11,SW,229,2.0,5.0,79,0.00,,,0.00,Wunderground v.1.15,2013-07-05 11:05:00,
2013-07-05 07:10:00,79.5,72.4,30.11,West,270,3.0,3.0,79,0.00,,,0.00,Wunderground v.1.15,2013-07-05 11:10:00,
2013-07-05 07:16:00,79.7,72.6,30.12,SW,219,0.0,9.0,79,0.00,,,0.00,Wunderground v.1.15,2013-07-05 11:16:00,
2013-07-05 07:21:00,79.8,72.7,30.12,SW,219,4.0,4.0,79,0.00,,,0.00,Wunderground v.1.15,2013-07-05 11:21:00,
2013-07-05 07:26:00,80.1,73.0,30.12,WNW,296,0.0,4.0,79,0.00,,,0.00,Wunderground v.1.15,2013-07-05 11:26:00,
2013-07-05 07:31:00,80.3,72.8,30.12,SW,230,3.0,3.0,78,0.00,,,0.00,Wunderground v.1.15,2013-07-05 11:31:00,
2013-07-05 07:36:00,80.4,72.5,30.12,West,263,2.0,6.0,77,0.00,,,0.00,Wunderground v.1.15,2013-07-05 11:36:00,
2013-07-05 07:42:00,80.7,72.8,30.12,West,264,0.0,6.0,77,0.00,,,0.00,Wunderground v.1.15,2013-07-05 11:42:00,
2013-07-05 07:47:00,80.9,73.0,30.12,NW,310,1.0,7.0,77,0.00,,,0.00,Wunderground v.1.15,2013-07-05 11:47:00,
2013-07-05 07:52:00,81.2,73.3,30.12,WSW,249,5.0,8.0,77,0.00,,,0.00,Wunderground v.1.15,2013-07-05 11:52:00,
2013-07-05 07:57:00,81.3,73.4,30.12,WSW,247,2.0,8.0,77,0.00,,,0.00,Wunderground v.1.15,2013-07-05 11:57:00,
2013-07-05 08:02:00,81.5,73.6,30.12,West,264,0.0,4.0,77,0.00,,,0.00,Wunderground v.1.15,2013-07-05 12:02:00,
2013-07-05 08:08:00,81.7,73.4,30.12,West,275,3.0,7.0,76,0.00,,,0.00,Wunderground v.1.15,2013-07-05 12:08:00,
2013-07-05 08:13:00,82.0,73.7,30.12,West,263,4.0,5.0,76,0.00,,,0.00,Wunderground v.1.15,2013-07-05 12:13:00,
2013-07-05 08:19:00,82.2,73.9,30.12,WSW,237,3.0,5.0,76,0.00,,,0.00,Wunderground v.1.15,2013-07-05 12:19:00,
2013-07-05 08:33:00,82.9,74.2,30.12,WNW,300,1.0,4.0,75,0.00,,,0.00,Wunderground v.1.15,2013-07-05 12:33:00,
2013-07-05 08:38:00,83.1,73.9,30.12,NNW,332,0.0,9.0,74,0.00,,,0.00,Wunderground v.1.15,2013-07-05 12:38:00,
2013-07-05 08:43:00,83.2,73.6,30.12,West,280,3.0,3.0,73,0.00,,,0.00,Wunderground v.1.15,2013-07-05 12:43:00,
2013-07-05 08:48:00,83.5,74.7,30.12,West,272,7.0,8.0,75,0.00,,,0.00,Wunderground v.1.15,2013-07-05 12:48:00,
2013-07-05 08:54:00,83.8,74.6,30.12,WNW,290,3.0,7.0,74,0.00,,,0.00,Wunderground v.1.15,2013-07-05 12:54:00,
2013-07-05 09:01:00,84.1,74.5,30.11,WNW,288,0.0,4.0,73,0.00,,,0.00,Wunderground v.1.15,2013-07-05 13:01:00,
2013-07-05 09:06:00,84.4,74.8,30.11,West,265,1.0,5.0,73,0.00,,,0.00,Wunderground v.1.15,2013-07-05 13:06:00,
2013-07-05 09:12:00,84.6,75.0,30.11,NW,313,4.0,6.0,73,0.00,,,0.00,Wunderground v.1.15,2013-07-05 13:12:00,
2013-07-05 09:17:00,84.9,74.9,30.11,West,270,2.0,7.0,72,0.00,,,0.00,Wunderground v.1.15,2013-07-05 13:17:00,
2013-07-05 09:22:00,85.1,75.1,30.10,WNW,287,2.0,8.0,72,0.00,,,0.00,Wunderground v.1.15,2013-07-05 13:22:00,
2013-07-05 09:27:00,85.3,75.2,30.10,West,277,0.0,12.0,72,0.00,,,0.00,Wunderground v.1.15,2013-07-05 13:27:00,
2013-07-05 09:32:00,85.5,75.9,30.10,NW,306,3.0,4.0,73,0.00,,,0.00,Wunderground v.1.15,2013-07-05 13:32:00,
2013-07-05 09:37:00,85.6,75.1,30.10,WNW,294,3.0,8.0,71,0.00,,,0.00,Wunderground v.1.15,2013-07-05 13:37:00,
2013-07-05 09:42:00,85.8,75.3,30.10,WNW,291,1.0,7.0,71,0.00,,,0.00,Wunderground v.1.15,2013-07-05 13:42:00,
2013-07-05 09:48:00,86.0,75.1,30.10,NW,325,6.0,7.0,70,0.00,,,0.00,Wunderground v.1.15,2013-07-05 13:48:00,
2013-07-05 09:53:00,86.2,75.3,30.10,WSW,249,5.0,5.0,70,0.00,,,0.00,Wunderground v.1.15,2013-07-05 13:53:00,
2013-07-05 09:58:00,86.5,75.5,30.10,NW,313,8.0,8.0,70,0.00,,,0.00,Wunderground v.1.15,2013-07-05 13:58:00,
2013-07-05 10:04:00,86.7,75.7,30.10,WNW,288,3.0,7.0,70,0.00,,,0.00,Wunderground v.1.15,2013-07-05 14:04:00,
2013-07-05 10:09:00,86.9,75.5,30.10,NNW,341,8.0,8.0,69,0.00,,,0.00,Wunderground v.1.15,2013-07-05 14:09:00,
2013-07-05 10:15:00,87.0,75.6,30.10,NNW,336,9.0,10.0,69,0.00,,,0.00,Wunderground v.1.15,2013-07-05 14:15:00,
2013-07-05 10:20:00,87.1,75.7,30.10,NW,323,7.0,7.0,69,0.00,,,0.00,Wunderground v.1.15,2013-07-05 14:20:00,
2013-07-05 10:25:00,87.3,75.4,30.10,NNW,346,5.0,7.0,68,0.00,,,0.00,Wunderground v.1.15,2013-07-05 14:25:00,
2013-07-05 10:30:00,87.4,75.1,30.10,WNW,290,5.0,7.0,67,0.00,,,0.00,Wunderground v.1.15,2013-07-05 14:30:00,
2013-07-05 10:35:00,87.5,75.2,30.10,NNW,336,2.0,7.0,67,0.00,,,0.00,Wunderground v.1.15,2013-07-05 14:35:00,
2013-07-05 10:40:00,87.5,75.6,30.10,SSW,213,1.0,4.0,68,0.00,,,0.00,Wunderground v.1.15,2013-07-05 14:40:00,
2013-07-05 10:45:00,87.5,74.7,30.10,NNW,341,4.0,8.0,66,0.00,,,0.00,Wunderground v.1.15,2013-07-05 14:45:00,
2013-07-05 10:50:00,87.6,74.8,30.09,WSW,242,2.0,3.0,66,0.00,,,0.00,Wunderground v.1.15,2013-07-05 14:50:00,
2013-07-05 10:55:00,87.7,75.4,30.09,WSW,246,3.0,6.0,67,0.00,,,0.00,Wunderground v.1.15,2013-07-05 14:55:00,
2013-07-05 11:01:00,87.7,75.4,30.09,West,268,4.0,6.0,67,0.00,,,0.00,Wunderground v.1.15,2013-07-05 15:01:00,
2013-07-05 11:06:00,87.7,74.9,30.09,West,279,2.0,6.0,66,0.00,,,0.00,Wunderground v.1.15,2013-07-05 15:06:00,
2013-07-05 11:11:00,87.7,74.9,30.09,WSW,256,1.0,6.0,66,0.00,,,0.00,Wunderground v.1.15,2013-07-05 15:11:00,
2013-07-05 11:16:00,87.7,74.9,30.09,West,269,3.0,6.0,66,0.00,,,0.00,Wunderground v.1.15,2013-07-05 15:16:00,
2013-07-05 11:22:00,87.6,74.4,30.09,West,259,2.0,5.0,65,0.00,,,0.00,Wunderground v.1.15,2013-07-05 15:22:00,
2013-07-05 11:27:00,87.5,74.7,30.09,WSW,244,3.0,5.0,66,0.00,,,0.00,Wunderground v.1.15,2013-07-05 15:27:00,
2013-07-05 11:32:00,87.6,74.8,30.08,West,275,7.0,7.0,66,0.00,,,0.00,Wunderground v.1.15,2013-07-05 15:32:00,
2013-07-05 11:37:00,87.7,74.5,30.08,NW,318,3.0,7.0,65,0.00,,,0.00,Wunderground v.1.15,2013-07-05 15:37:00,
2013-07-05 11:42:00,87.9,75.6,30.08,West,277,6.0,7.0,67,0.00,,,0.00,Wunderground v.1.15,2013-07-05 15:42:00,
2013-07-05 11:47:00,88.1,75.8,30.08,WSW,240,4.0,7.0,67,0.00,,,0.00,Wunderground v.1.15,2013-07-05 15:47:00,
2013-07-05 11:49:00,88.2,75.9,30.08,West,265,4.0,9.0,67,0.00,,,0.00,Wunderground v.1.15,2013-07-05 15:49:00,
2013-07-05 11:55:00,88.3,74.6,30.08,WNW,285,2.0,5.0,64,0.00,,,0.00,Wunderground v.1.15,2013-07-05 15:55:00,
2013-07-05 12:00:00,88.4,74.7,30.08,WSW,244,2.0,9.0,64,0.00,,,0.00,Wunderground v.1.15,2013-07-05 16:00:00,
2013-07-05 12:05:00,88.5,75.7,30.08,WNW,291,1.0,5.0,66,0.00,,,0.00,Wunderground v.1.15,2013-07-05 16:05:00,
2013-07-05 12:10:00,88.6,76.2,30.08,West,272,0.0,8.0,67,0.00,,,0.00,Wunderground v.1.15,2013-07-05 16:10:00,
2013-07-05 12:15:00,88.8,75.0,30.08,NW,319,1.0,8.0,64,0.00,,,0.00,Wunderground v.1.15,2013-07-05 16:15:00,
2013-07-05 12:20:00,88.8,75.0,30.07,WSW,237,2.0,2.0,64,0.00,,,0.00,Wunderground v.1.15,2013-07-05 16:20:00,
2013-07-05 12:26:00,88.8,74.1,30.07,South,188,1.0,8.0,62,0.00,,,0.00,Wunderground v.1.15,2013-07-05 16:26:00,
2013-07-05 12:31:00,88.8,74.1,30.07,WSW,241,3.0,6.0,62,0.00,,,0.00,Wunderground v.1.15,2013-07-05 16:31:00,
2013-07-05 12:36:00,88.8,75.0,30.07,WNW,282,2.0,12.0,64,0.00,,,0.00,Wunderground v.1.15,2013-07-05 16:36:00,
2013-07-05 12:41:00,88.8,75.0,30.07,West,261,4.0,6.0,64,0.00,,,0.00,Wunderground v.1.15,2013-07-05 16:41:00,
2013-07-05 12:46:00,88.8,73.6,30.07,SSW,210,1.0,13.0,61,0.00,,,0.00,Wunderground v.1.15,2013-07-05 16:46:00,
2013-07-05 12:51:00,89.1,73.9,30.07,West,274,4.0,8.0,61,0.00,,,0.00,Wunderground v.1.15,2013-07-05 16:51:00,
2013-07-05 12:56:00,89.2,74.0,30.07,WNW,284,12.0,12.0,61,0.00,,,0.00,Wunderground v.1.15,2013-07-05 16:56:00,
2013-07-05 13:01:00,89.2,74.0,30.06,West,261,6.0,8.0,61,0.00,,,0.00,Wunderground v.1.15,2013-07-05 17:01:00,
2013-07-05 13:06:00,89.2,73.5,30.07,SSW,209,4.0,11.0,60,0.00,,,0.00,Wunderground v.1.15,2013-07-05 17:06:00,
2013-07-05 13:11:00,89.3,75.0,30.06,NW,311,1.0,6.0,63,0.00,,,0.00,Wunderground v.1.15,2013-07-05 17:11:00,
2013-07-05 13:16:00,89.3,73.1,30.06,West,281,7.0,12.0,59,0.00,,,0.00,Wunderground v.1.15,2013-07-05 17:16:00,
2013-07-05 13:21:00,89.4,74.2,30.06,WSW,252,6.0,6.0,61,0.00,,,0.00,Wunderground v.1.15,2013-07-05 17:21:00,
2013-07-05 13:26:00,89.5,73.3,30.06,SSW,192,2.0,11.0,59,0.00,,,0.00,Wunderground v.1.15,2013-07-05 17:26:00,
2013-07-05 13:31:00,89.6,73.4,30.06,SW,223,2.0,10.0,59,0.00,,,0.00,Wunderground v.1.15,2013-07-05 17:31:00,
2013-07-05 13:36:00,89.7,74.0,30.05,West,267,1.0,10.0,60,0.00,,,0.00,Wunderground v.1.15,2013-07-05 17:36:00,
2013-07-05 13:41:00,89.6,73.9,30.05,WSW,254,1.0,6.0,60,0.00,,,0.00,Wunderground v.1.15,2013-07-05 17:41:00,
2013-07-05 13:46:00,89.7,73.0,30.05,WSW,241,3.0,10.0,58,0.00,,,0.00,Wunderground v.1.15,2013-07-05 17:46:00,
2013-07-05 13:51:00,89.9,74.2,30.05,West,260,5.0,9.0,60,0.00,,,0.00,Wunderground v.1.15,2013-07-05 17:51:00,
2013-07-05 13:56:00,90.0,74.2,30.05,WSW,242,1.0,10.0,60,0.00,,,0.00,Wunderground v.1.15,2013-07-05 17:56:00,
2013-07-05 14:01:00,89.9,73.1,30.05,SSW,202,1.0,4.0,58,0.00,,,0.00,Wunderground v.1.15,2013-07-05 18:01:00,
2013-07-05 14:06:00,89.9,72.6,30.05,WSW,241,3.0,10.0,57,0.00,,,0.00,Wunderground v.1.15,2013-07-05 18:06:00,
2013-07-05 14:11:00,90.1,74.8,30.05,SW,233,4.0,7.0,61,0.00,,,0.00,Wunderground v.1.15,2013-07-05 18:11:00,
2013-07-05 14:16:00,90.2,73.9,30.05,WSW,246,5.0,11.0,59,0.00,,,0.00,Wunderground v.1.15,2013-07-05 18:16:00,
2013-07-05 14:21:00,90.4,74.6,30.05,SW,234,2.0,5.0,60,0.00,,,0.00,Wunderground v.1.15,2013-07-05 18:21:00,
2013-07-05 14:26:00,90.3,72.5,30.05,SW,227,4.0,11.0,56,0.00,,,0.00,Wunderground v.1.15,2013-07-05 18:26:00,
2013-07-05 14:31:00,90.3,73.5,30.05,West,275,2.0,6.0,58,0.00,,,0.00,Wunderground v.1.15,2013-07-05 18:31:00,
2013-07-05 14:36:00,90.4,74.1,30.04,WSW,248,4.0,11.0,59,0.00,,,0.00,Wunderground v.1.15,2013-07-05 18:36:00,
2013-07-05 14:41:00,90.3,73.5,30.04,NW,308,3.0,8.0,58,0.00,,,0.00,Wunderground v.1.15,2013-07-05 18:41:00,
2013-07-05 14:46:00,90.2,72.9,30.04,West,271,3.0,10.0,57,0.00,,,0.00,Wunderground v.1.15,2013-07-05 18:46:00,
2013-07-05 14:51:00,90.2,73.4,30.04,WNW,287,6.0,12.0,58,0.00,,,0.00,Wunderground v.1.15,2013-07-05 18:51:00,
2013-07-05 14:56:00,90.1,73.3,30.04,SSW,198,2.0,12.0,58,0.00,,,0.00,Wunderground v.1.15,2013-07-05 18:56:00,
2013-07-05 15:01:00,90.0,72.7,30.03,SW,218,5.0,11.0,57,0.00,,,0.00,Wunderground v.1.15,2013-07-05 19:01:00,
2013-07-05 15:06:00,89.9,72.6,30.03,SSW,204,5.0,11.0,57,0.00,,,0.00,Wunderground v.1.15,2013-07-05 19:06:00,
2013-07-05 15:11:00,90.1,73.8,30.03,WSW,240,6.0,7.0,59,0.00,,,0.00,Wunderground v.1.15,2013-07-05 19:11:00,
2013-07-05 15:16:00,90.0,73.2,30.03,SW,236,0.0,12.0,58,0.00,,,0.00,Wunderground v.1.15,2013-07-05 19:16:00,
2013-07-05 15:22:00,89.9,72.6,30.02,WNW,284,5.0,8.0,57,0.00,,,0.00,Wunderground v.1.15,2013-07-05 19:22:00,
2013-07-05 15:27:00,90.0,74.2,30.02,WNW,284,3.0,8.0,60,0.00,,,0.00,Wunderground v.1.15,2013-07-05 19:27:00,
2013-07-05 15:32:00,89.9,73.7,30.02,WSW,257,5.0,15.0,59,0.00,,,0.00,Wunderground v.1.15,2013-07-05 19:32:00,
2013-07-05 15:37:00,89.9,73.7,30.02,WSW,248,5.0,15.0,59,0.00,,,0.00,Wunderground v.1.15,2013-07-05 19:37:00,
2013-07-05 15:42:00,89.8,72.5,30.02,West,274,4.0,14.0,57,0.00,,,0.00,Wunderground v.1.15,2013-07-05 19:42:00,
2013-07-05 15:47:00,89.8,73.6,30.02,West,271,4.0,14.0,59,0.00,,,0.00,Wunderground v.1.15,2013-07-05 19:47:00,
2013-07-05 15:52:00,89.9,73.7,30.02,North,360,0.0,11.0,59,0.00,,,0.00,Wunderground v.1.15,2013-07-05 19:52:00,
2013-07-05 15:57:00,90.0,74.2,30.01,West,277,3.0,11.0,60,0.00,,,0.00,Wunderground v.1.15,2013-07-05 19:57:00,
2013-07-05 16:02:00,89.9,73.1,30.01,West,267,9.0,9.0,58,0.00,,,0.00,Wunderground v.1.15,2013-07-05 20:02:00,
2013-07-05 16:07:00,89.9,73.7,30.01,SSW,200,1.0,12.0,59,0.00,,,0.00,Wunderground v.1.15,2013-07-05 20:07:00,
2013-07-05 16:12:00,89.9,73.1,30.01,SSW,202,3.0,10.0,58,0.00,,,0.00,Wunderground v.1.15,2013-07-05 20:12:00,
2013-07-05 16:17:00,90.0,73.7,30.01,WNW,298,2.0,10.0,59,0.00,,,0.00,Wunderground v.1.15,2013-07-05 20:17:00,
2013-07-05 16:22:00,90.0,72.7,30.01,SSW,193,2.0,13.0,57,0.00,,,0.00,Wunderground v.1.15,2013-07-05 20:22:00,
2013-07-05 16:28:00,89.9,73.1,30.01,SW,222,4.0,13.0,58,0.00,,,0.00,Wunderground v.1.15,2013-07-05 20:28:00,
2013-07-05 16:33:00,90.0,73.2,30.01,WSW,252,2.0,10.0,58,0.00,,,0.00,Wunderground v.1.15,2013-07-05 20:33:00,
2013-07-05 16:39:00,90.1,73.3,30.01,WNW,284,7.0,13.0,58,0.00,,,0.00,Wunderground v.1.15,2013-07-05 20:39:00,
2013-07-05 16:44:00,90.2,73.9,30.01,West,259,8.0,8.0,59,0.00,,,0.00,Wunderground v.1.15,2013-07-05 20:44:00,
2013-07-05 16:49:00,90.2,73.4,30.00,WSW,242,9.0,14.0,58,0.00,,,0.00,Wunderground v.1.15,2013-07-05 20:49:00,
2013-07-05 16:54:00,90.1,73.3,30.01,West,275,5.0,11.0,58,0.00,,,0.00,Wunderground v.1.15,2013-07-05 20:54:00,
2013-07-05 16:59:00,90.1,73.3,30.00,SSW,203,7.0,16.0,58,0.00,,,0.00,Wunderground v.1.15,2013-07-05 20:59:00,
2013-07-05 17:04:00,90.2,72.9,30.00,NW,321,5.0,12.0,57,0.00,,,0.00,Wunderground v.1.15,2013-07-05 21:04:00,
2013-07-05 17:09:00,90.2,73.4,30.01,SSW,197,2.0,12.0,58,0.00,,,0.00,Wunderground v.1.15,2013-07-05 21:09:00,
2013-07-05 17:14:00,90.1,73.3,30.00,NNW,331,1.0,12.0,58,0.00,,,0.00,Wunderground v.1.15,2013-07-05 21:14:00,
2013-07-05 17:19:00,90.1,73.3,30.00,WSW,243,2.0,12.0,58,0.00,,,0.00,Wunderground v.1.15,2013-07-05 21:19:00,
2013-07-05 17:24:00,90.1,73.8,30.00,WSW,242,4.0,9.0,59,0.00,,,0.00,Wunderground v.1.15,2013-07-05 21:24:00,
2013-07-05 17:29:00,90.2,73.4,30.00,SW,221,4.0,13.0,58,0.00,,,0.00,Wunderground v.1.15,2013-07-05 21:29:00,
2013-07-05 17:34:00,90.2,72.9,30.00,WSW,257,5.0,16.0,57,0.00,,,0.00,Wunderground v.1.15,2013-07-05 21:34:00,
2013-07-05 17:39:00,90.2,73.4,30.00,West,260,4.0,16.0,58,0.00,,,0.00,Wunderground v.1.15,2013-07-05 21:39:00,
2013-07-05 17:44:00,90.1,73.3,30.00,SW,233,15.0,15.0,58,0.00,,,0.00,Wunderground v.1.15,2013-07-05 21:44:00,
2013-07-05 17:49:00,89.9,72.6,30.00,West,261,8.0,15.0,57,0.00,,,0.00,Wunderground v.1.15,2013-07-05 21:49:00,
2013-07-05 17:50:00,89.9,73.1,30.00,SW,236,5.0,8.0,58,0.00,,,0.00,Wunderground v.1.15,2013-07-05 21:50:00,
2013-07-05 17:55:00,89.8,72.5,30.00,SW,233,3.0,13.0,57,0.00,,,0.00,Wunderground v.1.15,2013-07-05 21:55:00,
2013-07-05 18:00:00,89.8,72.5,30.00,WSW,248,5.0,9.0,57,0.00,,,0.00,Wunderground v.1.15,2013-07-05 22:00:00,
2013-07-05 18:05:00,89.8,73.0,30.00,WSW,252,4.0,13.0,58,0.00,,,0.00,Wunderground v.1.15,2013-07-05 22:05:00,
2013-07-05 18:10:00,89.7,73.0,30.00,WSW,246,8.0,8.0,58,0.00,,,0.00,Wunderground v.1.15,2013-07-05 22:10:00,
2013-07-05 18:15:00,89.7,73.5,29.99,WSW,247,8.0,12.0,59,0.00,,,0.00,Wunderground v.1.15,2013-07-05 22:15:00,
2013-07-05 18:20:00,89.7,73.0,29.99,SW,227,4.0,5.0,58,0.00,,,0.00,Wunderground v.1.15,2013-07-05 22:20:00,
2013-07-05 18:26:00,89.6,72.9,29.99,West,261,2.0,10.0,58,0.00,,,0.00,Wunderground v.1.15,2013-07-05 22:26:00,
2013-07-05 18:31:00,89.5,72.8,30.00,SW,225,7.0,8.0,58,0.00,,,0.00,Wunderground v.1.15,2013-07-05 22:31:00,
2013-07-05 18:35:00,89.5,73.3,29.99,SW,232,2.0,11.0,59,0.00,,,0.00,Wunderground v.1.15,2013-07-05 22:35:00,
2013-07-05 18:41:00,89.5,72.8,29.99,West,269,4.0,12.0,58,0.00,,,0.00,Wunderground v.1.15,2013-07-05 22:41:00,
2013-07-05 18:46:00,89.3,72.1,29.99,SW,222,13.0,16.0,57,0.00,,,0.00,Wunderground v.1.15,2013-07-05 22:46:00,
2013-07-05 18:51:00,89.2,72.5,29.99,West,269,4.0,11.0,58,0.00,,,0.00,Wunderground v.1.15,2013-07-05 22:51:00,
2013-07-05 18:56:00,89.1,72.4,29.99,NW,304,5.0,11.0,58,0.00,,,0.00,Wunderground v.1.15,2013-07-05 22:56:00,
2013-07-05 19:01:00,89.0,72.3,29.99,WSW,254,5.0,9.0,58,0.00,,,0.00,Wunderground v.1.15,2013-07-05 23:01:00,
2013-07-05 19:06:00,89.1,72.4,29.99,SSE,148,12.0,13.0,58,0.00,,,0.00,Wunderground v.1.15,2013-07-05 23:06:00,
2013-07-05 19:11:00,89.0,72.8,30.00,WSW,251,15.0,15.0,59,0.00,,,0.00,Wunderground v.1.15,2013-07-05 23:11:00,
2013-07-05 19:16:00,88.9,72.7,29.99,WNW,288,2.0,15.0,59,0.00,,,0.00,Wunderground v.1.15,2013-07-05 23:16:00,
2013-07-05 19:21:00,88.8,73.1,29.99,SSW,199,1.0,3.0,60,0.00,,,0.00,Wunderground v.1.15,2013-07-05 23:21:00,
2013-07-05 19:26:00,88.7,73.5,29.99,WSW,257,6.0,10.0,61,0.00,,,0.00,Wunderground v.1.15,2013-07-05 23:26:00,
2013-07-05 19:31:00,88.6,73.9,29.99,WSW,240,1.0,6.0,62,0.00,,,0.00,Wunderground v.1.15,2013-07-05 23:31:00,
2013-07-05 19:36:00,88.5,74.3,29.99,SW,236,5.0,9.0,63,0.00,,,0.00,Wunderground v.1.15,2013-07-05 23:36:00,
2013-07-05 19:37:00,88.5,74.3,29.99,WSW,247,3.0,9.0,63,0.00,,,0.00,Wunderground v.1.15,2013-07-05 23:37:00,
2013-07-05 19:42:00,88.4,74.7,29.99,SSW,196,2.0,7.0,64,0.00,,,0.00,Wunderground v.1.15,2013-07-05 23:42:00,
2013-07-05 19:47:00,88.3,74.6,29.99,SSW,204,7.0,11.0,64,0.00,,,0.00,Wunderground v.1.15,2013-07-05 23:47:00,
2013-07-05 19:52:00,88.1,74.4,29.99,WSW,248,11.0,13.0,64,0.00,,,0.00,Wunderground v.1.15,2013-07-05 23:52:00,
2013-07-05 19:57:00,87.8,74.1,29.99,SW,214,8.0,13.0,64,0.00,,,0.00,Wunderground v.1.15,2013-07-05 23:57:00,
2013-07-05 19:58:00,87.8,74.1,30.00,SSW,202,6.0,13.0,64,0.00,,,0.00,Wunderground v.1.15,2013-07-05 23:58:00,
2013-07-05 20:03:00,87.6,73.9,29.99,SW,214,2.0,10.0,64,0.00,,,0.00,Wunderground v.1.15,2013-07-06 00:03:00,
2013-07-05 20:08:00,87.4,74.2,29.99,South,186,9.0,10.0,65,0.00,,,0.00,Wunderground v.1.15,2013-07-06 00:08:00,
2013-07-05 20:13:00,87.2,74.0,29.99,South,184,3.0,9.0,65,0.00,,,0.00,Wunderground v.1.15,2013-07-06 00:13:00,
2013-07-05 20:18:00,87.1,73.4,30.00,WSW,243,3.0,12.0,64,0.00,,,0.00,Wunderground v.1.15,2013-07-06 00:18:00,
2013-07-05 20:23:00,86.9,73.7,30.00,WSW,257,3.0,8.0,65,0.00,,,0.00,Wunderground v.1.15,2013-07-06 00:23:00,
2013-07-05 20:28:00,86.7,73.5,30.00,SW,225,5.0,9.0,65,0.00,,,0.00,Wunderground v.1.15,2013-07-06 00:28:00,
2013-07-05 20:33:00,86.5,73.3,30.00,West,269,4.0,6.0,65,0.00,,,0.00,Wunderground v.1.15,2013-07-06 00:33:00,
2013-07-05 20:38:00,86.3,73.1,30.00,WSW,237,1.0,7.0,65,0.00,,,0.00,Wunderground v.1.15,2013-07-06 00:38:00,
2013-07-05 20:43:00,86.2,73.5,30.00,WSW,242,0.0,7.0,66,0.00,,,0.00,Wunderground v.1.15,2013-07-06 00:43:00,
2013-07-05 20:48:00,86.0,73.3,30.00,South,189,2.0,9.0,66,0.00,,,0.00,Wunderground v.1.15,2013-07-06 00:48:00,
2013-07-05 20:49:00,86.0,73.3,30.00,South,189,0.0,9.0,66,0.00,,,0.00,Wunderground v.1.15,2013-07-06 00:49:00,
2013-07-05 20:54:00,85.9,73.2,30.00,SW,225,7.0,8.0,66,0.00,,,0.00,Wunderground v.1.15,2013-07-06 00:54:00,
2013-07-05 20:59:00,85.8,73.1,30.00,West,269,1.0,9.0,66,0.00,,,0.00,Wunderground v.1.15,2013-07-06 00:59:00,
2013-07-05 21:04:00,85.7,73.5,30.00,South,174,4.0,6.0,67,0.00,,,0.00,Wunderground v.1.15,2013-07-06 01:04:00,
2013-07-05 21:09:00,85.6,73.4,30.00,South,190,0.0,6.0,67,0.00,,,0.00,Wunderground v.1.15,2013-07-06 01:09:00,
2013-07-05 21:14:00,85.5,73.3,30.00,WSW,237,5.0,10.0,67,0.00,,,0.00,Wunderground v.1.15,2013-07-06 01:14:00,
2013-07-05 21:19:00,85.4,73.6,30.01,South,188,0.0,10.0,68,0.00,,,0.00,Wunderground v.1.15,2013-07-06 01:19:00,
2013-07-05 21:24:00,85.3,73.5,30.01,WSW,244,3.0,6.0,68,0.00,,,0.00,Wunderground v.1.15,2013-07-06 01:24:00,
2013-07-05 21:30:00,85.2,73.9,30.01,South,191,1.0,3.0,69,0.00,,,0.00,Wunderground v.1.15,2013-07-06 01:30:00,
2013-07-05 21:35:00,85.1,73.8,30.02,South,182,2.0,7.0,69,0.00,,,0.00,Wunderground v.1.15,2013-07-06 01:35:00,
2013-07-05 21:40:00,85.0,73.7,30.02,WSW,253,0.0,3.0,69,0.00,,,0.00,Wunderground v.1.15,2013-07-06 01:40:00,
2013-07-05 21:45:00,84.9,73.6,30.02,SSE,161,3.0,10.0,69,0.00,,,0.00,Wunderground v.1.15,2013-07-06 01:45:00,
2013-07-05 21:50:00,84.8,73.9,30.02,WSW,243,4.0,7.0,70,0.00,,,0.00,Wunderground v.1.15,2013-07-06 01:50:00,
2013-07-05 21:55:00,84.6,73.7,30.02,NW,315,0.0,9.0,70,0.00,,,0.00,Wunderground v.1.15,2013-07-06 01:55:00,
2013-07-05 22:00:00,84.5,73.6,30.02,WSW,238,4.0,8.0,70,0.00,,,0.00,Wunderground v.1.15,2013-07-06 02:00:00,
2013-07-05 22:05:00,84.3,73.9,30.02,WSW,246,0.0,9.0,71,0.00,,,0.00,Wunderground v.1.15,2013-07-06 02:05:00,
2013-07-05 22:10:00,84.2,73.8,30.02,SW,221,0.0,2.0,71,0.00,,,0.00,Wunderground v.1.15,2013-07-06 02:10:00,
2013-07-05 22:15:00,84.1,74.1,30.01,SW,223,2.0,12.0,72,0.00,,,0.00,Wunderground v.1.15,2013-07-06 02:15:00,
2013-07-05 22:20:00,83.9,73.9,30.01,WSW,248,0.0,2.0,72,0.00,,,0.00,Wunderground v.1.15,2013-07-06 02:20:00,
2013-07-05 22:25:00,83.8,73.8,30.01,SW,233,2.0,7.0,72,0.00,,,0.00,Wunderground v.1.15,2013-07-06 02:25:00,
2013-07-05 22:30:00,83.7,73.7,30.01,WSW,238,3.0,5.0,72,0.00,,,0.00,Wunderground v.1.15,2013-07-06 02:30:00,
2013-07-05 22:31:00,83.7,73.7,30.01,SW,217,0.0,5.0,72,0.00,,,0.00,Wunderground v.1.15,2013-07-06 02:31:00,
2013-07-05 22:36:00,83.6,74.0,30.01,SSW,212,0.0,10.0,73,0.00,,,0.00,Wunderground v.1.15,2013-07-06 02:36:00,
2013-07-05 22:41:00,83.5,73.9,30.01,WNW,291,2.0,5.0,73,0.00,,,0.00,Wunderground v.1.15,2013-07-06 02:41:00,
2013-07-05 22:46:00,83.4,73.8,30.01,WSW,238,0.0,9.0,73,0.00,,,0.00,Wunderground v.1.15,2013-07-06 02:46:00,
2013-07-05 22:51:00,83.3,73.7,30.01,SW,215,2.0,5.0,73,0.00,,,0.00,Wunderground v.1.15,2013-07-06 02:51:00,
2013-07-05 22:56:00,83.3,73.7,30.01,SSW,199,1.0,5.0,73,0.00,,,0.00,Wunderground v.1.15,2013-07-06 02:56:00,
2013-07-05 23:01:00,83.2,73.6,30.01,SW,221,3.0,6.0,73,0.00,,,0.00,Wunderground v.1.15,2013-07-06 03:01:00,
2013-07-05 23:06:00,83.1,73.5,30.01,WSW,251,0.0,6.0,73,0.00,,,0.00,Wunderground v.1.15,2013-07-06 03:06:00,
2013-07-05 23:07:00,83.1,73.5,30.01,WSW,253,2.0,6.0,73,0.00,,,0.00,Wunderground v.1.15,2013-07-06 03:07:00,
2013-07-05 23:12:00,83.0,73.4,30.01,NW,311,3.0,6.0,73,0.00,,,0.00,Wunderground v.1.15,2013-07-06 03:12:00,
2013-07-05 23:17:00,82.9,73.8,30.01,SW,225,1.0,8.0,74,0.00,,,0.00,Wunderground v.1.15,2013-07-06 03:17:00,
2013-07-05 23:22:00,82.8,73.7,30.01,SW,236,1.0,8.0,74,0.00,,,0.00,Wunderground v.1.15,2013-07-06 03:22:00,
2013-07-05 23:27:00,82.7,73.6,30.01,SW,217,2.0,9.0,74,0.00,,,0.00,Wunderground v.1.15,2013-07-06 03:27:00,
2013-07-05 23:33:00,82.6,73.5,30.01,SW,232,8.0,8.0,74,0.00,,,0.00,Wunderground v.1.15,2013-07-06 03:33:00,
2013-07-05 23:38:00,82.5,73.4,30.01,WNW,284,2.0,9.0,74,0.00,,,0.00,Wunderground v.1.15,2013-07-06 03:38:00,
2013-07-05 23:43:00,82.5,73.4,30.02,SSW,210,0.0,6.0,74,0.00,,,0.00,Wunderground v.1.15,2013-07-06 03:43:00,
2013-07-05 23:48:00,82.4,73.3,30.02,WSW,238,0.0,7.0,74,0.00,,,0.00,Wunderground v.1.15,2013-07-06 03:48:00,
2013-07-05 23:53:00,82.3,73.2,30.02,WSW,244,0.0,10.0,74,0.00,,,0.00,Wunderground v.1.15,2013-07-06 03:53:00,
2013-07-05 23:58:00,82.2,73.5,30.02,WSW,256,0.0,10.0,75,0.00,,,0.00,Wunderground v.1.15,2013-07-06 03:58:00,